This is the latest recevied weather packets stored in our database for station/object WB4ROX. If no packets are shown the sender has not sent any weather packets the latest 10 day(s).
| Time | Temp. | Humidity | Pressure | Rain* | Wind** | Luminosity | Snow |
|---|---|---|---|---|---|---|---|
| 1777663814 | 11.67° C | 51% | 1015.1 hPa | 0 mm | - | 309 W/m² | - |
| 1777663510 | 11.11° C | 50% | 1014.8 hPa | 0 mm | - | 194 W/m² | - |
| 1777663208 | 11.67° C | 51% | 1015.1 hPa | 0 mm | - | 232 W/m² | - |
| 1777662905 | 11.67° C | 51% | 1015.2 hPa | 0 mm | - | 215 W/m² | - |
| 1777662602 | 11.11° C | 51% | 1015.2 hPa | 0 mm | - | 234 W/m² | - |
| 1777662297 | 10.56° C | 53% | 1015 hPa | 0 mm | - | 775 W/m² | - |
| 1777661993 | 10.56° C | 57% | 1015.2 hPa | 0 mm | - | 137 W/m² | - |
| 1777661689 | 11.11° C | 55% | 1015.1 hPa | 0 mm | - | 130 W/m² | - |
| 1777661385 | 11.11° C | 52% | 1015.2 hPa | 0 mm | - | 70 W/m² | - |
| 1777661082 | 11.11° C | 51% | 1015.1 hPa | 0 mm | - | 111 W/m² | - |
| 1777660777 | 11.11° C | 50% | 1015.4 hPa | 0 mm | - | 163 W/m² | - |
| 1777660474 | 11.11° C | 50% | 1015.3 hPa | 0 mm | - | 129 W/m² | - |
| 1777660170 | 11.11° C | 49% | 1015.4 hPa | 0 mm | - | 185 W/m² | - |
| 1777659867 | 11.67° C | 47% | 1015.3 hPa | 0 mm | - | 229 W/m² | - |
| 1777659563 | 11.67° C | 46% | 1015.3 hPa | 0 mm | - | 173 W/m² | - |
| 1777659261 | 12.22° C | 45% | 1015.3 hPa | 0 mm | - | 172 W/m² | - |
| 1777658958 | 12.22° C | 45% | 1015.4 hPa | 0 mm | - | 342 W/m² | - |
| 1777658655 | 12.22° C | 46% | 1015.3 hPa | 0 mm | - | 290 W/m² | - |
| 1777658351 | 11.67° C | 45% | 1015.4 hPa | 0 mm | - | 892 W/m² | - |
| 1777658048 | 11.67° C | 44% | 1015.2 hPa | 0 mm | - | 261 W/m² | - |
| 1777657745 | 11.67° C | 46% | 1015.5 hPa | 0 mm | - | 1048 W/m² | - |
| 1777657442 | 11.67° C | 46% | 1015.4 hPa | 0 mm | - | 260 W/m² | - |
| 1777657140 | 11.67° C | 45% | 1015.4 hPa | 0 mm | - | 166 W/m² | - |
| 1777656837 | 11.67° C | 46% | 1015.6 hPa | 0 mm | - | 177 W/m² | - |
| 1777656533 | 12.22° C | 45% | 1015.5 hPa | 0 mm | - | 184 W/m² | - |
* Rain latest hour (hover to see other rain measurements)
** Current wind speed in m/s (hover to see current wind gust speed)